sat.trackr.live / text

‹ back to catalog

STARLINK-4525

NORAD 53401 · 2022-097P

PAYLOAD ACTIVE UNKNOWN

§ Identity

Operator
Country
US
Launch date
2022-08-10
Launch site
AFETR
Launch vehicle
Mass (kg)
RCS (m²)

Purposes: comms

External: N2YO · Heavens-Above · Gunter

§ Orbital elements

Epoch: 2026-09-20T04:03:54.940032Z

Period
93.90 min
Inclination
53.1606°
Eccentricity
0.0001300
Mean motion
15.33551460 rev/d
Perigee alt
464.3 km
Apogee alt
466.1 km
Semi-major
6,843.4 km
B*
3.4672e-5
RAAN
323.4662°
Arg perigee
81.4951°
Mean anomaly
278.6198°
Rev number
22,797

§ Raw data

STARLINK-45251 53401U 22097P   26263.16938588  .00000768  00000+0  34672-4 0  99962 53401  53.1606 323.4662 0001300  81.4951 278.6198 15.33551460227975

JSON: /api/v1/satellites/53401 · /tle

For live sub-satellite position, see the globe view (requires WebGL).

§ Visibility from observer

Set your observer location to see the next 7 days of passes ≥ 10°. The values pass through the URL so the page stays shareable.

No JS? Fill the form by hand. The geolocation button needs JavaScript.